Find Starlink 36882

NORAD ID: 67980 Int'l Des: 2026-038 Owner: SPXS Country: US Constellation: starlink operational
LEOCIRCULARRETROGRADE

現在のビュー

3D地球を読み込み中...

About Starlink 36882

Starlink 36882 (NORAD 67980) is a starlink constellation satellite (v2 mini) launched Feb 25, 2026 by SPXS of US. It operates in LEO, CIRCULAR, RETROGRADE orbit with a mass of 575.00 kg.

Starlink 36882について

説明を読み込み中...

次回通過

Passes for default location (London). Set your location on the main map for personalized predictions.

高度履歴

Loading altitude history...

軌道要素

1 67980U 26038V 26195.61581952 .00015943 00000-0 49509-3 0 9991
2 67980 97.2830 204.9712 0001851 94.4242 265.7212 15.33446527 22690
Epoch: Jul 14, 2026 • Age: 5 hours

現在のステータス

高度 479.3 km
遠地点 / 近地点 N/A
速度 7.62 km/s
衛星直下点 -34.21°S, 12.48°W
打ち上げ日 Feb 25, 2026
運用期間 0.3 years
タイプ internet

技術仕様

分類 Payload
質量 575.00 kg
乾燥質量 530.00 kg
総質量 575.00 kg
長さ 0.30 m
直径 4.10 m
スパン 29.00 m
形状 Box + pan
製造者 SPXS
バスタイプ Starlink V2MO
フェーズステータス In Orbit
所有者/国 SPXS/US

Most Searched